Date String (YYYY-MM-DD hh:mm:ss) UTC,Instrument flags,absolute air pressure of the measurement (hPa),sample flow rate (lpm),inlet stack bypass flow (lpm),air temperature of the measurement (°C),ambient temperature measured by the external sensor (°C),aerosol sample conditioner tube jacket temperature (°C),OPC LED temperature (°C),internal box temperature (°C),relative humidity of the measurement (%),span deviation,mass concentration of particles derived from Lorenz-Mie calculation of OPC scattering (μg/m³),mass concentration of particles derived from Lorenz-Mie calculation of OPC scattering (μg/m³),mass concentration of particles derived from Lorenz-Mie calculation of OPC scattering (μg/m³)
DateTimeUTC,F1_M11,P_M11,Q1_M11,Q2_M11,T1_M11,T2_M11,T3_M11,T4_M11,T5_M11,U1_M11,ZSPAN_M11,X0_M11,X2_M11,X1_M11
2024-06-13 04:00:00,SystemResetWarning,0830.1,5.00,000.00,029.3,028.4,000.0,037.5,031.1,018.9,0000.0,0011.86,0004.30,0003.64
2024-06-13 04:01:00,SystemResetWarning,0830.1,5.00,000.00,029.4,028.6,000.0,037.5,031.2,018.8,0000.0,0011.60,0004.30,0003.64
2024-06-13 04:02:00,SystemResetWarning,0830.1,5.00,000.00,029.4,028.8,000.0,037.5,031.2,018.7,0000.0,0011.68,0004.26,0003.63
2024-06-13 04:03:00,SystemResetWarning,0830.1,5.00,000.00,029.5,028.9,000.0,037.6,031.3,018.7,0000.0,0011.73,0004.24,0003.63
2024-06-13 04:04:00,SystemResetWarning,0830.2,5.00,000.00,029.6,029.0,000.0,037.6,031.4,018.5,0000.0,0012.28,0004.23,0003.62
2024-06-13 04:05:00,SystemResetWarning,0830.2,4.99,000.00,029.7,029.2,000.0,037.6,031.5,018.4,0000.0,0011.48,0004.19,0003.59
2024-06-13 04:06:00,SystemResetWarning,0830.2,4.99,000.00,029.7,028.9,000.0,037.7,031.3,018.4,0000.0,0011.19,0004.21,0003.59
2024-06-13 04:07:00,SystemResetWarning,0830.1,5.00,000.00,029.4,026.8,000.0,037.8,030.4,018.7,0000.0,0011.41,0004.23,0003.59
2024-06-13 04:08:00,SystemResetWarning,0830.1,5.02,000.00,029.2,026.4,000.0,037.8,030.1,019.0,0000.0,0011.29,0004.24,0003.60
2024-06-13 04:09:00,SystemResetWarning,0830.1,4.99,000.00,029.1,026.8,000.0,037.7,030.3,019.1,0000.0,0011.24,0004.27,0003.61
2024-06-13 04:10:00,SystemResetWarning,0830.1,5.00,000.00,029.1,027.2,000.0,037.6,030.5,019.1,0000.0,0011.34,0004.36,0003.62
2024-06-13 04:11:00,SystemResetWarning,0830.1,5.00,000.00,029.1,027.6,000.0,037.6,030.7,019.0,0000.0,0011.13,0004.35,0003.62
2024-06-13 04:12:00,SystemResetWarning,0830.1,5.01,000.00,029.2,027.9,000.0,037.5,030.8,019.0,0000.0,0010.97,0004.36,0003.63
2024-06-13 04:13:00,SystemResetWarning,0830.1,5.00,000.00,029.3,028.2,000.0,037.5,031.0,019.0,0000.0,0010.91,0004.39,0003.63
2024-06-13 04:14:00,SystemResetWarning,0830.1,5.00,000.00,029.3,028.4,000.0,037.5,031.1,018.9,0000.0,0010.71,0004.40,0003.64
2024-06-13 04:15:00,SystemResetWarning,0830.1,5.00,000.00,029.4,028.6,000.0,037.6,031.2,018.8,0000.0,0009.78,0004.41,0003.64
2024-06-13 04:16:00,SystemResetWarning,0830.1,5.00,000.00,029.5,028.8,000.0,037.6,031.3,018.7,0000.0,0009.72,0004.42,0003.66
2024-06-13 04:17:00,SystemResetWarning,0830.1,4.99,000.00,029.5,028.9,000.0,037.6,031.3,018.7,0000.0,0010.38,0004.35,0003.65
2024-06-13 04:18:00,SystemResetWarning,0830.1,5.00,000.00,029.6,029.0,000.0,037.6,031.4,018.6,0000.0,0010.12,0004.34,0003.66
2024-06-13 04:19:00,SystemResetWarning,0830.2,5.01,000.00,029.7,029.2,000.0,037.7,031.5,018.5,0000.0,0010.19,0004.32,0003.65
2024-06-13 04:20:00,SystemResetWarning,0830.2,5.01,000.00,029.8,029.3,000.0,037.7,031.5,018.5,0000.0,0010.16,0004.32,0003.65
2024-06-13 04:21:00,SystemResetWarning,0830.2,4.98,000.00,029.6,027.7,000.0,037.8,030.8,018.6,0000.0,0009.96,0004.29,0003.64
2024-06-13 04:22:00,SystemResetWarning,0830.1,5.02,000.00,029.2,025.4,000.0,037.8,029.6,019.2,0000.0,0010.05,0004.35,0003.65
2024-06-13 04:23:00,SystemResetWarning,0830.1,5.00,000.00,028.8,025.4,000.0,037.8,029.5,019.6,0000.0,0010.08,0004.37,0003.66
2024-06-13 04:24:00,SystemResetWarning,0830.1,4.99,000.00,028.7,025.9,000.0,037.6,029.7,019.8,0000.0,0010.10,0004.39,0003.67
2024-06-13 04:25:00,SystemResetWarning,0830.1,5.01,000.00,028.8,026.4,000.0,037.5,030.0,019.9,0000.0,0010.80,0004.41,0003.68
2024-06-13 04:26:00,SystemResetWarning,0830.2,4.99,000.00,028.8,026.9,000.0,037.4,030.2,019.9,0000.0,0010.70,0004.40,0003.68
2024-06-13 04:27:00,SystemResetWarning,0830.2,5.00,000.00,028.9,027.3,000.0,037.4,030.5,019.9,0000.0,0011.27,0004.40,0003.69
2024-06-13 04:28:00,SystemResetWarning,0830.2,4.99,000.00,028.9,027.6,000.0,037.4,030.6,019.9,0000.0,0010.32,0004.41,0003.70
2024-06-13 04:29:00,SystemResetWarning,0830.2,5.00,000.00,029.0,027.9,000.0,037.4,030.8,019.8,0000.0,0009.67,0004.42,0003.70
2024-06-13 04:30:00,SystemResetWarning,0830.2,5.00,000.00,029.1,028.2,000.0,037.4,030.9,019.7,0000.0,0009.51,0004.43,0003.71
2024-06-13 04:31:00,SystemResetWarning,0830.2,4.99,000.00,029.2,028.4,000.0,037.4,031.0,019.7,0000.0,0009.52,0004.45,0003.72
2024-06-13 04:32:00,SystemResetWarning,0830.2,5.00,000.00,029.2,028.6,000.0,037.4,031.0,019.7,0000.0,0009.57,0004.44,0003.74
2024-06-13 04:33:00,SystemResetWarning,0830.2,5.00,000.00,029.3,028.7,000.0,037.4,031.1,019.8,0000.0,0009.79,0004.43,0003.75
2024-06-13 04:34:00,SystemResetWarning,0830.1,5.00,000.00,029.4,028.9,000.0,037.4,031.2,019.8,0000.0,0009.88,0004.41,0003.76
2024-06-13 04:35:00,SystemResetWarning,0830.2,5.00,000.00,029.5,029.0,000.0,037.5,031.3,019.6,0000.0,0009.87,0004.43,0003.78
2024-06-13 04:36:00,SystemResetWarning,0830.2,5.00,000.00,029.5,029.1,000.0,037.5,031.4,019.5,0000.0,0009.16,0004.43,0003.78
2024-06-13 04:37:00,SystemResetWarning,0830.2,5.00,000.00,029.6,029.2,000.0,037.6,031.4,019.4,0000.0,0009.18,0004.44,0003.79
2024-06-13 04:38:00,SystemResetWarning,0830.2,5.00,000.00,029.7,029.3,000.0,037.6,031.5,019.1,0000.0,0008.58,0004.44,0003.80
2024-06-13 04:39:00,SystemResetWarning,0830.3,5.00,000.00,029.7,029.3,000.0,037.7,031.5,019.0,0000.0,0008.49,0004.46,0003.81
2024-06-13 04:40:00,SystemResetWarning,0830.2,5.00,000.00,029.8,029.2,000.0,037.7,031.5,019.2,0000.0,0008.59,0004.51,0003.82
2024-06-13 04:41:00,SystemResetWarning,0830.1,4.99,000.00,029.5,027.1,000.0,037.8,030.5,019.2,0000.0,0008.69,0004.54,0003.83
2024-06-13 04:42:00,SystemResetWarning,0830.1,5.02,000.00,029.2,026.4,000.0,037.8,030.1,019.5,0000.0,0009.33,0004.51,0003.83
2024-06-13 04:43:00,SystemResetWarning,0830.1,5.00,000.00,029.1,026.7,000.0,037.8,030.2,019.5,0000.0,0009.69,0004.57,0003.85
2024-06-13 04:44:00,SystemResetWarning,0830.1,5.00,000.00,029.1,027.1,000.0,037.7,030.4,019.3,0000.0,0009.72,0004.57,0003.85
2024-06-13 04:45:00,SystemResetWarning,0830.1,5.00,000.00,029.1,027.5,000.0,037.6,030.6,019.3,0000.0,0009.57,0004.57,0003.84
2024-06-13 04:46:00,SystemResetWarning,0830.1,5.00,000.00,029.2,027.8,000.0,037.6,030.8,019.1,0000.0,0009.58,0004.54,0003.82
2024-06-13 04:47:00,SystemResetWarning,0830.1,5.00,000.00,029.3,028.1,000.0,037.6,030.9,019.2,0000.0,0009.76,0004.55,0003.81
2024-06-13 04:48:00,SystemResetWarning,0830.1,5.00,000.00,029.3,028.3,000.0,037.6,031.0,019.2,0000.0,0010.08,0004.58,0003.81
2024-06-13 04:49:00,SystemResetWarning,0830.1,5.00,000.00,029.4,028.5,000.0,037.6,031.1,019.2,0000.0,0010.16,0004.59,0003.81
2024-06-13 04:50:00,SystemResetWarning,0830.1,4.99,000.00,029.5,028.7,000.0,037.6,031.2,019.0,0000.0,0010.19,0004.61,0003.82
2024-06-13 04:51:00,SystemResetWarning,0830.1,4.99,000.00,029.5,028.9,000.0,037.6,031.3,019.0,0000.0,0010.44,0004.60,0003.81
2024-06-13 04:52:00,SystemResetWarning,0830.1,4.99,000.00,029.6,029.0,000.0,037.6,031.4,018.9,0000.0,0010.48,0004.58,0003.81
2024-06-13 04:53:00,SystemResetWarning,0830.1,5.00,000.00,029.6,029.1,000.0,037.7,031.5,018.8,0000.0,0010.01,0004.57,0003.80
2024-06-13 04:54:00,SystemResetWarning,0830.1,5.02,000.00,029.7,029.2,000.0,037.7,031.5,018.6,0000.0,0009.69,0004.55,0003.78
2024-06-13 04:55:00,SystemResetWarning,0830.1,5.00,000.00,029.8,029.3,000.0,037.7,031.6,018.5,0000.0,0009.75,0004.52,0003.77
2024-06-13 04:56:00,SystemResetWarning,0830.1,4.99,000.00,029.8,029.4,000.0,037.8,031.6,018.4,0000.0,0009.73,0004.52,0003.76
2024-06-13 04:57:00,SystemResetWarning,0830.1,5.00,000.00,029.8,028.4,000.0,037.9,031.1,018.4,0000.0,0009.76,0004.50,0003.76
2024-06-13 04:58:00,SystemResetWarning,0830.0,5.01,000.00,029.4,026.5,000.0,037.9,030.3,018.6,0000.0,0009.86,0004.50,0003.75
2024-06-13 04:59:00,SystemResetWarning,0830.1,5.01,000.00,029.2,026.5,000.0,037.9,030.2,018.8,0000.0,0009.57,0004.49,0003.75
